START_TIME,STEP,MOV.,M15,t_acc.,M20,t_acc.
1979-08-01 06:23:06.810 ,0,0,1.,24.0,0.,24.0
1979-08-01 06:23:30.810 ,0,1,0.,24.0,0.,24.0
1979-08-01 06:23:54.810 ,0,0,0.,24.0,0.,24.0
1979-08-01 06:24:18.810 ,0,1,0.,24.0,0.,24.0
1979-08-01 06:24:42.810 ,0,0,0.,24.0,0.,24.0
1979-08-01 06:25:06.810 ,1,1,0.,24.0,0.,24.0
1979-08-01 06:25:30.810 ,1,0,0.,24.0,0.,24.0
1979-08-01 06:25:54.810 ,2,1,0.,24.0,0.,24.0
1979-08-01 06:26:18.810 ,2,0,0.,24.0,0.,24.0
1979-08-01 06:26:42.810 ,3,1,0.,24.0,0.,24.0
1979-08-01 06:27:06.810 ,3,0,0.,24.0,0.,24.0
1979-08-01 06:27:30.810 ,4,1,0.,24.0,0.,24.0
1979-08-01 06:27:54.810 ,4,0,0.,24.0,0.,24.0
1979-08-01 06:28:18.810 ,5,1,0.,24.0,0.,24.0
1979-08-01 06:28:42.810 ,5,0,0.,24.0,0.,24.0
1979-08-01 06:29:06.810 ,6,1,0.,24.0,0.,24.0
1979-08-01 06:29:30.810 ,0,0,0.,24.0,0.,24.0
1979-08-01 06:29:54.810 ,7,1,0.,24.0,0.,24.0
1979-08-01 06:30:18.810 ,7,0,0.,24.0,0.,24.0
1979-08-01 06:31:30.810 ,0,0,0.,24.0,0.,24.0
1979-08-01 06:31:54.810 ,0,0,0.,24.0,0.,24.0
1979-08-01 06:32:18.810 ,5,1,0.,24.0,0.,24.0
1979-08-01 06:32:42.810 ,5,0,0.,24.0,0.,24.0
1979-08-01 06:33:06.810 ,4,1,0.,24.0,0.,24.0
1979-08-01 06:33:30.810 ,4,0,0.,24.0,0.,24.0
1979-08-01 06:33:54.810 ,3,1,0.,24.0,0.,24.0
1979-08-01 06:34:18.810 ,3,0,0.,24.0,0.,24.0
1979-08-01 06:34:42.810 ,2,1,0.,24.0,0.,24.0
1979-08-01 06:35:06.810 ,2,0,0.,24.0,0.,24.0
1979-08-01 06:36:18.810 ,0,0,0.,24.0,0.,24.0
1979-08-01 06:36:42.810 ,0,0,0.,24.0,0.,24.0
1979-08-01 06:37:06.810 ,0,1,0.,24.0,0.,24.0
1979-08-01 06:37:30.810 ,0,0,,0,,0
1979-08-01 06:37:54.810 ,0,0,,0,,0
1979-08-01 06:38:18.810 ,0,0,0.,24.0,0.,24.0
1979-08-01 06:38:42.810 ,2,1,0.,24.0,0.,24.0
1979-08-01 06:39:06.810 ,2,0,0.,24.0,0.,24.0
1979-08-01 06:39:30.810 ,3,1,0.,24.0,0.,24.0
1979-08-01 06:39:54.810 ,3,0,0.,24.0,0.,24.0
1979-08-01 06:40:18.810 ,4,1,0.,24.0,0.,24.0
1979-08-01 06:40:42.810 ,4,0,0.,24.0,0.,24.0
1979-08-01 06:41:54.810 ,0,0,0.,24.0,0.,24.0
1979-08-01 06:42:18.810 ,0,0,0.,24.0,0.,24.0
1979-08-01 06:42:42.810 ,7,0,0.,24.0,0.,24.0
1979-08-01 06:43:06.810 ,7,0,0.,24.0,0.,24.0
1979-08-01 06:43:30.810 ,3,1,0.,24.0,0.,24.0
1979-08-01 06:43:54.810 ,0,1,0.,24.0,0.,24.0
1979-08-01 06:44:18.810 ,4,1,0.,24.0,0.,24.0
1979-08-01 06:44:42.810 ,7,1,0.,24.0,0.,24.0
1979-08-01 06:45:06.810 ,3,1,0.,24.0,0.,24.0
1979-08-01 06:45:30.810 ,0,1,0.,24.0,0.,24.0
1979-08-01 06:45:54.810 ,4,1,0.,24.0,0.,24.0
1979-08-01 06:46:18.810 ,7,1,0.,24.0,0.,24.0
1979-08-01 06:46:42.810 ,3,1,0.,24.0,0.,24.0
1979-08-01 06:47:06.810 ,0,1,0.,24.0,0.,24.0
1979-08-01 06:47:30.810 ,4,1,0.,24.0,0.,24.0
1979-08-01 06:47:54.810 ,7,1,0.,24.0,0.,24.0
1979-08-01 06:48:18.810 ,3,1,0.,24.0,0.,24.0
1979-08-01 06:48:42.810 ,0,1,0.,24.0,0.,24.0
1979-08-01 06:49:06.810 ,4,1,0.,24.0,0.,24.0
1979-08-01 06:49:30.810 ,7,1,0.,24.0,0.,24.0
1979-08-01 06:49:54.810 ,3,1,0.,24.0,0.,24.0
1979-08-01 06:50:18.810 ,0,1,0.,24.0,0.,24.0
1979-08-01 06:50:42.810 ,4,1,0.,24.0,0.,24.0
1979-08-01 06:51:06.810 ,7,1,0.,24.0,0.,24.0
1979-08-01 06:51:30.810 ,3,1,0.,24.0,0.,24.0
1979-08-01 06:51:54.810 ,0,1,0.,24.0,0.,24.0
1979-08-01 06:52:18.810 ,4,1,0.,24.0,0.,24.0
1979-08-01 06:52:42.810 ,7,1,0.,24.0,0.,24.0
1979-08-01 06:53:06.810 ,3,1,0.,24.0,0.,24.0
1979-08-01 06:53:30.810 ,0,1,0.,24.0,0.,24.0
1979-08-01 06:53:54.810 ,0,0,0.,24.0,0.,24.0
1979-08-01 06:54:18.810 ,0,0,0.,24.0,0.,24.0
1979-08-01 06:54:42.810 ,5,1,0.,24.0,0.,24.0
1979-08-01 06:55:06.810 ,5,0,0.,24.0,0.,24.0
1979-08-01 06:55:30.810 ,4,1,0.,24.0,0.,24.0
1979-08-01 06:55:54.810 ,4,0,0.,24.0,0.,24.0
1979-08-01 06:56:18.810 ,3,1,0.,24.0,0.,24.0
1979-08-01 06:56:42.810 ,3,0,0.,24.0,0.,24.0
1979-08-01 06:57:06.800 ,2,1,0.,24.0,0.,24.0
1979-08-01 06:57:30.800 ,2,0,0.,24.0,0.,24.0
1979-08-01 06:57:54.800 ,1,1,0.,24.0,0.,24.0
1979-08-01 06:58:18.800 ,1,0,0.,24.0,0.,24.0
1979-08-01 06:58:42.800 ,0,1,0.,24.0,0.,24.0
1979-08-01 06:59:06.800 ,0,0,0.,24.0,0.,24.0
1979-08-01 06:59:30.800 ,0,1,0.,24.0,0.,24.0
1979-08-01 06:59:54.800 ,0,0,0.,24.0,0.,24.0
1979-08-01 07:00:18.810 ,1,1,0.,24.0,0.,24.0
1979-08-01 07:00:42.810 ,1,0,0.,24.0,0.,24.0
1979-08-01 07:01:06.810 ,2,1,1.,24.0,0.,24.0
1979-08-01 07:01:30.810 ,2,0,0.,24.0,0.,24.0
1979-08-01 07:01:54.810 ,3,1,0.,24.0,0.,24.0
1979-08-01 07:02:18.810 ,3,0,0.,24.0,0.,24.0
1979-08-01 07:02:42.810 ,4,1,0.,24.0,0.,24.0
1979-08-01 07:03:06.810 ,4,0,0.,24.0,0.,24.0
1979-08-01 07:03:30.810 ,5,1,0.,24.0,0.,24.0
1979-08-01 07:03:54.810 ,5,0,0.,24.0,0.,24.0
1979-08-01 07:04:18.800 ,6,1,0.,24.0,0.,24.0
1979-08-01 07:04:42.810 ,6,0,0.,24.0,0.,24.0
1979-08-01 07:05:06.800 ,7,1,0.,24.0,0.,24.0
1979-08-01 07:05:30.810 ,7,0,0.,24.0,0.,24.0
1979-08-01 07:05:54.810 ,7,1,0.,24.0,0.,24.0
1979-08-01 07:06:18.800 ,7,0,0.,24.0,0.,24.0
1979-08-01 07:06:42.810 ,6,1,0.,24.0,0.,24.0
1979-08-01 07:07:06.800 ,6,0,0.,24.0,0.,24.0
1979-08-01 07:07:30.810 ,5,1,0.,24.0,0.,24.0
1979-08-01 07:07:54.810 ,5,0,0.,24.0,0.,24.0
1979-08-01 07:08:18.800 ,0,0,1.,24.0,0.,24.0
1979-08-01 07:08:42.800 ,0,0,0.,24.0,0.,24.0
1979-08-01 07:09:06.810 ,5,1,0.,24.0,0.,24.0
1979-08-01 07:09:30.810 ,5,0,0.,24.0,0.,24.0
1979-08-01 07:09:54.810 ,2,1,0.,24.0,0.,24.0
1979-08-01 07:10:18.810 ,2,0,0.,24.0,0.,24.0
1979-08-01 07:10:42.810 ,0,0,0.,24.0,0.,24.0
1979-08-01 07:11:06.810 ,0,0,0.,24.0,0.,24.0
1979-08-01 07:11:30.810 ,0,0,0.,24.0,0.,24.0
1979-08-01 07:11:54.810 ,0,0,0.,24.0,0.,24.0
1979-08-01 07:13:06.810 ,0,0,0.,24.0,0.,24.0
1979-08-01 07:13:30.810 ,0,0,0.,24.0,0.,24.0
1979-08-01 07:14:42.810 ,0,0,0.,24.0,0.,24.0
1979-08-01 07:15:06.810 ,0,0,0.,24.0,0.,24.0
1979-08-01 07:15:30.810 ,4,1,0.,24.0,0.,24.0
1979-08-01 07:15:54.810 ,4,0,0.,24.0,0.,24.0
1979-08-01 07:16:18.810 ,5,1,0.,24.0,0.,24.0
1979-08-01 07:16:42.810 ,5,0,0.,24.0,0.,24.0
1979-08-01 07:17:54.800 ,0,0,0.,24.0,0.,24.0
1979-08-01 07:18:18.800 ,0,0,0.,24.0,0.,24.0
1979-08-01 07:18:42.800 ,7,1,0.,24.0,0.,24.0
1979-08-01 07:19:06.800 ,7,0,0.,24.0,0.,24.0
1979-08-01 07:19:30.800 ,6,1,0.,24.0,0.,24.0
1979-08-01 07:19:54.800 ,6,0,0.,24.0,0.,24.0
1979-08-01 07:20:18.800 ,5,1,0.,24.0,0.,24.0
1979-08-01 07:20:42.800 ,5,0,0.,24.0,0.,24.0
1979-08-01 07:21:06.800 ,4,1,0.,24.0,0.,24.0
1979-08-01 07:21:30.800 ,4,0,0.,24.0,0.,24.0
1979-08-01 07:21:54.800 ,3,1,0.,24.0,0.,24.0
1979-08-01 07:22:18.800 ,3,0,0.,24.0,0.,24.0
1979-08-01 07:22:42.800 ,2,1,0.,24.0,0.,24.0
1979-08-01 07:23:06.800 ,2,0,0.,24.0,0.,24.0
1979-08-01 07:23:30.800 ,1,1,0.,24.0,0.,24.0
1979-08-01 07:23:54.800 ,1,0,0.,24.0,0.,24.0
1979-08-01 07:24:18.800 ,0,1,0.,24.0,0.,24.0
1979-08-01 07:24:42.800 ,0,0,0.,24.0,0.,24.0
1979-08-01 07:25:06.800 ,0,1,0.,24.0,0.,24.0
1979-08-01 07:25:30.800 ,0,0,0.,24.0,0.,24.0
1979-08-01 07:25:54.800 ,1,1,0.,24.0,0.,24.0
1979-08-01 07:26:18.800 ,1,0,0.,24.0,0.,24.0
1979-08-01 07:26:42.800 ,2,1,0.,24.0,0.,24.0
1979-08-01 07:27:06.800 ,2,0,0.,24.0,0.,24.0
1979-08-01 07:27:30.800 ,3,1,0.,24.0,0.,24.0
1979-08-01 07:27:54.800 ,5,0,0.,24.0,0.,24.0
1979-08-01 07:28:18.800 ,4,1,0.,24.0,0.,24.0
1979-08-01 07:28:42.800 ,4,0,0.,24.0,0.,24.0
1979-08-01 07:29:06.800 ,5,1,0.,24.0,0.,24.0
1979-08-01 07:29:30.800 ,5,0,0.,24.0,0.,24.0
1979-08-01 07:29:54.800 ,6,1,0.,24.0,0.,24.0
1979-08-01 07:30:18.800 ,6,0,0.,24.0,0.,24.0
1979-08-01 07:30:42.800 ,7,0,0.,24.0,0.,24.0
1979-08-01 07:31:06.800 ,7,0,0.,24.0,0.,24.0
1979-08-01 07:31:30.800 ,3,1,0.,24.0,0.,24.0
1979-08-01 07:31:54.800 ,0,1,0.,24.0,0.,24.0
1979-08-01 07:32:18.800 ,4,1,0.,24.0,0.,24.0
1979-08-01 07:32:42.800 ,7,1,0.,24.0,0.,24.0
1979-08-01 07:33:06.800 ,6,1,1.,24.0,0.,24.0
1979-08-01 07:33:30.800 ,6,0,0.,24.0,0.,24.0
1979-08-01 07:33:54.800 ,2,1,0.,24.0,0.,24.0
1979-08-01 07:34:18.800 ,7,1,0.,24.0,0.,24.0
1979-08-01 07:34:42.800 ,3,1,0.,24.0,0.,24.0
1979-08-01 07:35:06.800 ,0,1,0.,24.0,0.,24.0
1979-08-01 07:35:30.800 ,4,1,0.,24.0,0.,24.0
1979-08-01 07:35:54.800 ,7,1,0.,24.0,0.,24.0
1979-08-01 07:36:18.800 ,3,1,0.,24.0,0.,24.0
1979-08-01 07:36:42.800 ,0,1,0.,24.0,0.,24.0
1979-08-01 07:37:06.800 ,4,1,0.,24.0,0.,24.0
1979-08-01 07:37:30.800 ,7,1,0.,24.0,0.,24.0
1979-08-01 07:37:59.000 ,3,1,0.,24.0,0.,24.0
1979-08-01 07:38:18.800 ,0,1,0.,24.0,0.,24.0
1979-08-01 07:38:42.800 ,4,1,0.,24.0,0.,24.0
1979-08-01 07:39:06.800 ,6,0,0.,24.0,0.,24.0
1979-08-01 07:39:30.800 ,0,0,0.,24.0,0.,24.0
1979-08-01 07:39:54.800 ,0,1,0.,24.0,0.,24.0
1979-08-01 07:40:18.800 ,4,1,0.,24.0,0.,24.0
1979-08-01 07:40:42.800 ,7,1,0.,24.0,0.,24.0
1979-08-01 07:41:54.800 ,0,0,0.,24.0,0.,24.0
1979-08-01 07:42:18.800 ,0,0,0.,24.0,0.,24.0
1979-08-01 07:42:42.800 ,5,1,0.,24.0,0.,24.0
1979-08-01 07:43:06.800 ,5,0,0.,24.0,0.,24.0
1979-08-01 07:44:18.800 ,0,0,0.,24.0,0.,24.0
1979-08-01 07:44:42.800 ,0,0,0.,24.0,0.,24.0
1979-08-01 07:45:06.800 ,2,1,0.,24.0,0.,24.0
1979-08-01 07:45:30.800 ,2,0,0.,24.0,0.,24.0
1979-08-01 07:45:54.800 ,1,1,0.,24.0,0.,24.0
1979-08-01 07:46:18.800 ,1,0,0.,24.0,1.,24.0
1979-08-01 07:46:42.800 ,0,1,0.,24.0,0.,24.0
1979-08-01 07:47:06.800 ,0,0,0.,24.0,0.,24.0
1979-08-01 07:47:30.800 ,0,0,0.,24.0,0.,24.0
1979-08-01 07:47:54.800 ,0,0,0.,24.0,0.,24.0
1979-08-01 07:48:18.800 ,0,0,0.,24.0,0.,24.0
1979-08-01 07:48:42.800 ,0,0,0.,24.0,0.,24.0
1979-08-01 07:49:54.800 ,0,0,0.,24.0,0.,24.0
1979-08-01 07:50:18.800 ,0,0,0.,24.0,0.,24.0
1979-08-01 07:50:42.800 ,4,1,0.,24.0,0.,24.0
1979-08-01 07:51:06.800 ,4,0,0.,24.0,0.,24.0
1979-08-01 07:51:30.800 ,5,1,0.,24.0,0.,24.0
1979-08-01 07:51:54.800 ,5,0,0.,24.0,0.,24.0
1979-08-01 07:52:18.800 ,6,1,0.,24.0,0.,24.0
1979-08-01 07:52:42.800 ,6,0,0.,24.0,0.,24.0
1979-08-01 07:53:06.800 ,7,1,0.,24.0,0.,24.0
1979-08-01 07:53:30.800 ,7,0,0.,24.0,0.,24.0
1979-08-01 07:53:54.800 ,7,1,0.,24.0,0.,24.0
1979-08-01 07:54:18.800 ,7,0,0.,24.0,0.,24.0
1979-08-01 07:54:42.800 ,6,1,0.,24.0,0.,24.0
1979-08-01 07:55:06.800 ,6,0,0.,24.0,0.,24.0
1979-08-01 07:55:30.800 ,5,1,0.,24.0,0.,24.0
1979-08-01 07:55:54.800 ,5,0,0.,24.0,0.,24.0
1979-08-01 07:56:18.800 ,4,1,0.,24.0,0.,24.0
1979-08-01 07:56:42.800 ,4,0,0.,24.0,0.,24.0
1979-08-01 07:57:06.800 ,3,1,0.,24.0,0.,24.0
1979-08-01 07:57:30.800 ,3,0,0.,24.0,0.,24.0
1979-08-01 07:57:54.800 ,2,1,0.,24.0,0.,24.0
1979-08-01 07:58:18.800 ,2,0,0.,24.0,0.,24.0
1979-08-01 07:58:42.800 ,1,1,0.,24.0,0.,24.0
1979-08-01 07:59:06.800 ,1,0,0.,24.0,0.,24.0
1979-08-01 07:59:06.800 ,1,0,0.,24.0,0.,24.0
1979-08-01 07:59:30.800 ,0,1,0.,24.0,0.,24.0
1979-08-01 07:59:54.800 ,0,0,0.,24.0,0.,24.0
1979-08-01 08:00:18.800 ,0,1,0.,24.0,0.,24.0
1979-08-01 08:00:42.800 ,0,0,0.,24.0,0.,24.0
1979-08-01 08:01:06.800 ,1,1,0.,24.0,0.,24.0
1979-08-01 08:01:30.800 ,1,0,0.,24.0,0.,24.0
1979-08-01 08:01:54.800 ,2,1,0.,24.0,0.,24.0
1979-08-01 08:02:18.800 ,2,0,0.,24.0,0.,24.0
1979-08-01 08:02:42.800 ,3,1,0.,24.0,0.,24.0
1979-08-01 08:03:06.800 ,3,0,0.,24.0,0.,24.0
1979-08-01 08:03:30.800 ,4,1,0.,24.0,0.,24.0
1979-08-01 08:03:54.800 ,4,0,0.,24.0,0.,24.0
1979-08-01 08:04:18.800 ,5,1,0.,24.0,0.,24.0
1979-08-01 08:04:42.800 ,5,0,0.,24.0,0.,24.0
1979-08-01 08:05:06.800 ,6,1,0.,24.0,0.,24.0
1979-08-01 08:05:30.800 ,6,0,0.,24.0,0.,24.0
1979-08-01 08:05:54.800 ,7,1,0.,24.0,0.,24.0
1979-08-01 08:06:18.800 ,7,0,0.,24.0,0.,24.0
1979-08-01 08:06:42.800 ,7,1,0.,24.0,0.,24.0
1979-08-01 08:07:06.800 ,7,0,0.,24.0,0.,24.0
1979-08-01 08:07:30.800 ,6,1,0.,24.0,0.,24.0
1979-08-01 08:07:54.800 ,6,0,0.,24.0,0.,24.0
1979-08-01 08:08:18.800 ,5,1,0.,24.0,0.,24.0
1979-08-01 08:08:42.800 ,5,0,0.,24.0,0.,24.0
1979-08-01 08:09:06.800 ,4,1,0.,24.0,0.,24.0
1979-08-01 08:09:30.800 ,4,0,0.,24.0,0.,24.0
1979-08-01 08:09:54.800 ,3,1,0.,24.0,0.,24.0
1979-08-01 08:10:18.800 ,3,0,0.,24.0,0.,24.0
1979-08-01 08:10:42.800 ,2,1,0.,24.0,0.,24.0
1979-08-01 08:11:06.800 ,2,0,0.,24.0,0.,24.0
1979-08-01 08:11:30.800 ,1,1,0.,24.0,0.,24.0
1979-08-01 08:11:54.800 ,1,0,0.,24.0,0.,24.0
1979-08-01 08:12:18.800 ,0,1,0.,24.0,0.,24.0
1979-08-01 08:12:42.800 ,0,0,0.,24.0,0.,24.0
1979-08-01 08:13:06.800 ,0,1,0.,24.0,0.,24.0
1979-08-01 08:13:30.800 ,0,0,0.,24.0,0.,24.0
1979-08-01 08:13:54.800 ,1,1,0.,24.0,0.,24.0
1979-08-01 08:14:18.800 ,1,0,0.,24.0,0.,24.0
1979-08-01 08:14:42.800 ,2,1,0.,24.0,0.,24.0
1979-08-01 08:15:06.800 ,2,0,0.,24.0,0.,24.0
1979-08-01 08:15:30.800 ,3,1,0.,24.0,0.,24.0
1979-08-01 08:15:54.800 ,3,0,0.,24.0,0.,24.0
1979-08-01 08:16:18.800 ,4,1,0.,24.0,0.,24.0
1979-08-01 08:16:42.800 ,4,0,0.,24.0,0.,24.0
1979-08-01 08:17:06.800 ,5,1,0.,24.0,0.,24.0
1979-08-01 08:17:30.800 ,5,0,0.,24.0,0.,24.0
1979-08-01 08:17:54.800 ,6,1,0.,24.0,0.,24.0
1979-08-01 08:18:18.800 ,6,0,0.,24.0,0.,24.0
1979-08-01 08:18:42.800 ,7,0,0.,24.0,0.,24.0
1979-08-01 08:19:06.800 ,7,0,0.,24.0,0.,24.0
1979-08-01 08:19:30.800 ,3,1,0.,24.0,0.,24.0
1979-08-01 08:19:54.800 ,0,1,0.,24.0,0.,24.0
1979-08-01 08:20:18.800 ,4,1,0.,24.0,0.,24.0
1979-08-01 08:20:42.800 ,7,1,0.,24.0,0.,24.0
1979-08-01 08:21:06.800 ,3,1,0.,24.0,0.,24.0
1979-08-01 08:21:30.800 ,0,1,0.,24.0,0.,24.0
1979-08-01 08:21:54.800 ,4,1,0.,24.0,0.,24.0
1979-08-01 08:22:18.800 ,7,1,0.,24.0,0.,24.0
1979-08-01 08:22:42.800 ,3,1,0.,24.0,0.,24.0
1979-08-01 08:23:06.800 ,0,1,0.,24.0,0.,24.0
1979-08-01 08:23:30.800 ,4,1,0.,24.0,0.,24.0
1979-08-01 08:23:54.800 ,0,0,,0,,0
1979-08-01 08:24:18.800 ,0,0,0.,24.0,0.,24.0
1979-08-01 08:24:42.800 ,0,1,0.,24.0,0.,24.0
1979-08-01 08:25:06.800 ,4,1,0.,24.0,0.,24.0
1979-08-01 08:25:30.800 ,7,1,0.,24.0,0.,24.0
1979-08-01 08:25:54.800 ,3,1,0.,24.0,0.,24.0
1979-08-01 08:26:18.800 ,0,1,0.,24.0,0.,24.0
1979-08-01 08:26:42.800 ,4,1,0.,24.0,0.,24.0
1979-08-01 08:27:06.800 ,7,1,0.,24.0,0.,24.0
1979-08-01 08:27:30.800 ,3,1,0.,24.0,0.,24.0
1979-08-01 08:27:54.800 ,0,1,0.,24.0,0.,24.0
1979-08-01 08:28:18.800 ,4,1,0.,24.0,0.,24.0
1979-08-01 08:28:42.800 ,7,1,0.,24.0,0.,24.0
1979-08-01 08:29:06.800 ,3,1,0.,24.0,0.,24.0
1979-08-01 08:29:30.800 ,0,1,0.,24.0,0.,24.0
1979-08-01 08:29:54.800 ,0,0,0.,24.0,0.,24.0
1979-08-01 08:30:18.800 ,0,0,0.,24.0,0.,24.0
1979-08-01 08:30:42.800 ,5,1,0.,24.0,0.,24.0
1979-08-01 08:31:06.800 ,5,0,0.,24.0,0.,24.0
1979-08-01 08:31:30.800 ,4,1,0.,24.0,0.,24.0
1979-08-01 08:31:54.800 ,4,0,0.,24.0,0.,24.0
1979-08-01 08:32:18.800 ,3,1,0.,24.0,0.,24.0
1979-08-01 08:32:42.800 ,3,0,0.,24.0,0.,24.0
1979-08-01 08:33:06.800 ,2,1,0.,24.0,0.,24.0
1979-08-01 08:33:30.800 ,2,0,0.,24.0,0.,24.0
1979-08-01 08:33:54.800 ,1,1,0.,24.0,0.,24.0
1979-08-01 08:34:18.800 ,1,0,0.,24.0,0.,24.0
1979-08-01 08:34:42.800 ,0,1,0.,24.0,0.,24.0
1979-08-01 08:35:06.800 ,0,0,0.,24.0,0.,24.0
1979-08-01 08:35:30.800 ,0,1,0.,24.0,0.,24.0
1979-08-01 08:35:54.800 ,0,0,0.,24.0,0.,24.0
1979-08-01 08:36:18.800 ,1,1,0.,24.0,0.,24.0
1979-08-01 08:36:42.800 ,1,0,0.,24.0,0.,24.0
1979-08-01 08:37:06.800 ,2,1,0.,24.0,0.,24.0
1979-08-01 08:37:30.800 ,2,0,0.,24.0,0.,24.0
1979-08-01 08:37:54.800 ,3,1,0.,24.0,0.,24.0
1979-08-01 08:38:18.800 ,3,0,0.,24.0,0.,24.0
1979-08-01 08:38:42.800 ,4,1,0.,24.0,0.,24.0
1979-08-01 08:39:06.800 ,4,0,0.,24.0,0.,24.0
1979-08-01 08:39:30.800 ,5,1,0.,24.0,0.,24.0
1979-08-01 08:39:54.800 ,5,0,0.,24.0,0.,24.0
1979-08-01 08:40:18.800 ,6,1,0.,24.0,0.,24.0
1979-08-01 08:40:42.800 ,6,0,0.,24.0,0.,24.0
1979-08-01 08:41:06.800 ,7,1,0.,24.0,0.,24.0
1979-08-01 08:41:30.800 ,7,0,0.,24.0,0.,24.0
1979-08-01 08:41:54.800 ,7,1,0.,24.0,0.,24.0
1979-08-01 08:42:18.800 ,7,0,0.,24.0,0.,24.0
1979-08-01 08:42:42.800 ,6,1,0.,24.0,0.,24.0
1979-08-01 08:43:06.800 ,6,0,0.,24.0,0.,24.0
1979-08-01 08:43:30.800 ,5,1,0.,24.0,0.,24.0
1979-08-01 08:43:54.800 ,5,0,0.,24.0,0.,24.0
1979-08-01 08:44:18.800 ,4,1,0.,24.0,0.,24.0
1979-08-01 08:44:42.800 ,4,0,0.,24.0,0.,24.0
1979-08-01 08:45:06.800 ,3,1,0.,24.0,0.,24.0
1979-08-01 08:45:30.800 ,3,0,0.,24.0,0.,24.0
1979-08-01 08:45:54.800 ,2,1,0.,24.0,0.,24.0
1979-08-01 08:46:18.800 ,2,0,0.,24.0,0.,24.0
1979-08-01 08:46:42.800 ,1,1,0.,24.0,0.,24.0
1979-08-01 08:47:06.800 ,1,0,0.,24.0,0.,24.0
1979-08-01 08:47:30.800 ,0,1,0.,24.0,0.,24.0
1979-08-01 08:47:54.800 ,0,0,0.,24.0,0.,24.0
1979-08-01 08:48:18.800 ,0,1,0.,24.0,0.,24.0
1979-08-01 08:48:42.800 ,0,0,0.,24.0,0.,24.0
1979-08-01 08:49:06.800 ,1,1,0.,24.0,0.,24.0
1979-08-01 08:49:30.800 ,1,0,0.,24.0,0.,24.0
1979-08-01 08:49:54.800 ,2,1,0.,24.0,0.,24.0
1979-08-01 08:50:18.800 ,2,0,0.,24.0,0.,24.0
1979-08-01 08:50:42.800 ,3,1,0.,24.0,0.,24.0
1979-08-01 08:51:06.800 ,3,0,0.,24.0,0.,24.0
1979-08-01 08:51:30.800 ,4,1,0.,24.0,0.,24.0
1979-08-01 08:51:54.800 ,4,0,0.,24.0,0.,24.0
1979-08-01 08:52:18.800 ,5,1,0.,24.0,0.,24.0
1979-08-01 08:52:42.800 ,5,0,0.,24.0,0.,24.0
1979-08-01 08:53:06.800 ,6,1,0.,24.0,0.,24.0
1979-08-01 08:53:30.800 ,6,0,0.,24.0,0.,24.0
1979-08-01 08:53:54.800 ,7,1,0.,24.0,0.,24.0
1979-08-01 08:54:18.800 ,7,0,0.,24.0,0.,24.0
1979-08-01 08:54:42.800 ,7,1,0.,24.0,0.,24.0
1979-08-01 08:55:06.800 ,7,0,0.,24.0,0.,24.0
1979-08-01 08:55:30.800 ,6,1,0.,24.0,0.,24.0
1979-08-01 08:55:54.800 ,6,0,0.,24.0,0.,24.0
1979-08-01 08:56:18.800 ,5,1,0.,24.0,0.,24.0
1979-08-01 08:56:42.800 ,5,0,0.,24.0,0.,24.0
1979-08-01 08:57:06.800 ,4,1,0.,24.0,0.,24.0
1979-08-01 08:57:30.800 ,4,0,0.,24.0,0.,24.0
1979-08-01 08:57:54.800 ,3,1,0.,24.0,0.,24.0
1979-08-01 08:58:18.800 ,3,0,0.,24.0,0.,24.0
1979-08-01 08:58:42.800 ,2,1,0.,24.0,0.,24.0
1979-08-01 08:59:06.800 ,2,0,0.,24.0,0.,24.0
1979-08-01 08:59:30.800 ,1,1,0.,24.0,0.,24.0
1979-08-01 08:59:54.800 ,1,0,0.,24.0,0.,24.0
1979-08-01 09:00:18.800 ,0,1,0.,24.0,0.,24.0
